Regional Weather Roundup
Issued by NWS

Home | Current Version | Previous Version | Graphics & Text | Print | Product List | Glossary On
Versions: 1 2 3 4 5 6 7 8 9 10 11 12 13 14 15 16 17 18 19 20 21 22 23 24 25 26 27 28 29 30 31 32 33 34 35 36 37 38 39 40 41 42 43 44 45 46 47 48 49 50
000
ASUS43 KOAX 010410
RWRNE

WEATHER ROUNDUP FOR NEBRASKA
NATIONAL WEATHER SERVICE OMAHA NE
1100 PM CDT TUE JUN 30 2015

NOTES: SATELLITE DATA IS BEING USED TO AUGMENT CLOUD COVER ABOVE
       12000 FEET.
       "FAIR" INDICATES FEW OR NO CLOUDS BELOW 12,000 FEET WITH NO
       SIGNIFICANT WEATHER AND/OR OBSTRUCTIONS TO VISIBILITY.

  * THESE STATIONS DO NOT REPORT WEATHER SUCH AS RAIN...SNOW OR FOG.

NEZ001>004-019>022-054>056-010500-
NEBRASKA PANHANDLE

CITY           SKY/WX    TMP DP  RH WIND       PRES   REMARKS
SCOTTSBLUFF    CLOUDY    81  56  42 CALM      29.98R
ALLIANCE       CLOUDY    75  65  70 N9        29.95R
CHADRON        MOCLDY    72  66  81 CALM      29.93R
KIMBALL          N/A    N/A N/A N/A MISG        N/A
SIDNEY         MOCLDY    77  57  50 W13       30.00R
$$

NEZ057>060-069>072-079>082-010500-
SOUTHWEST NEBRASKA

CITY           SKY/WX    TMP DP  RH WIND       PRES   REMARKS
NORTH PLATTE   MOCLDY    76  68  76 E9        29.85R
IMPERIAL       PTCLDY    78  63  59 CALM      29.88S
LEXINGTON      CLOUDY    79  65  62 E9        29.84R
MCCOOK         PTCLDY    84  56  38 SE7       29.83S
OGALLALA       MOCLDY    76  61  60 CALM      29.88S
$$

NEZ005>010-023>029-035>040-094-010500-
NORTH CENTRAL NEBRASKA

CITY           SKY/WX    TMP DP  RH WIND       PRES   REMARKS
VALENTINE      CLOUDY    70  62  76 E13       29.90R
AINSWORTH      CLOUDY    69  63  80 E13       29.91R
BROKEN BOW     CLOUDY    74  67  78 E9        29.88R
O`NEILL        CLOUDY    71  64  78 E8        29.91F
ORD            CLOUDY    71  61  70 E14       29.90R
THEDFORD       PTCLDY    73  68  83 E12       29.90R
$$

NEZ041-046>049-061>064-073>077-083>087-010500-
SOUTH CENTRAL NEBRASKA

CITY           SKY/WX    TMP DP  RH WIND       PRES   REMARKS
GRAND ISLAND   CLOUDY    74  63  68 E12       29.87R
AURORA         CLOUDY    73  65  74 E12       29.86S
HASTINGS       CLOUDY    76  67  73 E10       29.84S
HEBRON         MOCLDY    78  67  71 E6        29.83S
HOLDREGE       CLOUDY    77  62  59 SE8       29.83S
KEARNEY *      CLOUDY    77  66  69 E10       29.84S
YORK           CLOUDY    73  64  73 E13       29.87S
$$

NEZ011>018-030>034-042>045-010500-
NORTHEAST NEBRASKA

CITY           SKY/WX    TMP DP  RH WIND       PRES   REMARKS
NORFOLK        TSTM      68  66  93 S12       29.92R FOG
ALBION         TSTM      69  62  77 NE5       29.95R
BLAIR          CLOUDY    68  65  88 NE8       29.92R
COLUMBUS *     CLOUDY    70  63  78 E7        29.91R
FREMONT        CLOUDY    71  65  80 N3        29.93R
TEKAMAH        CLOUDY    70  68  93 S5        29.89F FOG
WAYNE          CLOUDY    68  67  96 S6        29.91S FOG
$$

NEZ050>053-065>068-078-088>093-010500-
SOUTHEAST NEBRASKA

CITY           SKY/WX    TMP DP  RH WIND       PRES   REMARKS
LINCOLN        CLOUDY    74  64  71 E9        29.89R
OMAHA EPPLEY   CLOUDY    71  68  90 N8        29.93R
BEATRICE       CLOUDY    76  67  74 E12       29.86S
FALLS CITY     LGT RAIN  74  66  76 SE5       29.89S
NEBRASKA CITY  LGT RAIN  71  63  75 E10       29.89F
PLATTSMOUTH    LGT RAIN  69  64  84 SE6       29.90F
$$

NEZ044-045-051>053-067-010500-
OMAHA AREA

CITY           SKY/WX    TMP DP  RH WIND       PRES   REMARKS
OMAHA EPPLEY   CLOUDY    71  68  90 N8        29.93R
BLAIR          CLOUDY    68  65  88 NE8       29.92R
FREMONT        CLOUDY    71  65  80 N3        29.93R
MILLARD        CLOUDY    72  66  81 CALM      29.90F
OFFUTT AFB     CLOUDY    70  66  87 NE6       29.90S
PLATTSMOUTH    LGT RAIN  69  64  84 SE6       29.90F
WAHOO          FAIR      71  66  85 E9        29.89S
$$


USA.gov is the U.S. government's official web portal to all federal, state and local government web resources and services.